Date,TemperatureHighF,TemperatureAvgF,TemperatureLowF,DewpointHighF,DewpointAvgF,DewpointLowF,HumidityHigh,HumidityAvg,HumidityLow,PressureMaxIn,PressureMinIn,WindSpeedMaxMPH,WindSpeedAvgMPH,GustSpeedMaxMPH,PrecipitationSumIn
2012-1-1,47.4,38.0,29.2,40.9,32.0,21.3,91,79,60,30.04,29.58,22,10,36,0.01
2012-1-2,29.4,23.9,20.4,24.5,20.0,17.0,91,85,72,30.31,30.02,16,8,29,0.00
2012-1-3,25.2,20.9,15.7,19.4,13.9,8.8,94,75,51,30.44,30.18,12,4,20,0.00
2012-1-4,39.7,31.1,23.2,28.2,22.4,14.6,79,70,59,30.22,29.94,10,4,15,0.00
2012-1-5,46.3,36.5,26.3,35.7,29.7,22.4,92,77,63,30.07,29.80,12,3,18,0.00
2012-1-6,54.1,44.6,38.1,40.0,35.9,32.4,82,72,57,29.81,29.71,11,4,16,0.00
2012-1-7,43.7,38.4,31.7,35.9,31.1,27.4,86,75,60,30.25,29.74,13,3,17,0.00
2012-1-8,41.1,33.9,26.7,32.1,27.9,24.7,93,79,63,30.40,30.25,5,0,7,0.00
2012-1-9,45.8,36.8,29.7,30.1,27.7,25.1,84,70,49,30.31,30.01,12,3,20,0.00
2012-1-10,49.4,38.8,30.0,36.5,31.4,26.6,88,75,60,30.10,29.86,7,2,13,0.00
2012-1-11,45.7,39.6,32.3,38.1,34.1,27.8,93,81,66,29.87,29.47,10,4,13,0.01
2012-1-12,39.6,29.5,16.5,37.4,27.4,13.4,95,92,87,29.51,29.40,16,6,26,0.00
2012-1-13,20.2,17.9,15.0,17.0,14.8,12.0,91,88,84,30.09,29.49,16,7,25,0.00
2012-1-14,20.0,16.5,11.0,14.9,11.6,7.8,89,81,70,30.31,30.09,9,2,15,0.00
2012-1-15,26.8,17.3,7.7,20.1,11.3,4.9,89,78,58,30.50,30.22,15,4,20,0.00
2012-1-16,51.6,39.3,25.7,49.4,34.1,20.1,93,82,71,30.22,29.73,13,6,20,0.00
2012-1-17,54.4,39.3,25.0,53.0,37.0,21.1,96,91,85,30.15,29.54,17,7,28,0.01
2012-1-18,25.6,22.9,19.4,21.2,17.2,13.1,85,79,71,30.33,30.01,13,4,20,0.00
2012-1-19,28.9,20.6,9.6,25.3,16.4,6.0,93,84,78,30.21,29.85,15,5,23,0.00
2012-1-20,16.6,12.1,5.4,13.8,8.8,2.3,90,87,76,30.32,30.09,16,5,20,0.00
2012-1-21,19.7,15.6,12.6,14.4,12.0,8.9,90,86,78,30.31,30.08,13,6,15,0.00
2012-1-22,43.1,29.4,14.5,42.1,27.5,11.1,97,93,86,30.25,29.65,16,8,23,0.00
2012-1-23,48.4,39.9,32.1,47.2,37.2,25.5,97,90,75,29.92,29.46,20,10,33,0.06
2012-1-24,36.6,32.0,27.7,28.0,26.0,23.3,90,78,70,30.38,29.92,14,4,27,0.00
2012-1-25,32.8,29.5,24.4,30.4,27.0,22.7,94,90,85,30.40,30.13,9,2,12,0.00
2012-1-26,34.4,33.3,32.2,33.1,31.9,30.1,96,94,92,30.13,29.60,13,4,15,0.00
2012-1-27,42.2,36.4,33.2,34.3,31.0,23.9,100,82,54,30.02,29.61,14,4,24,0.00
2012-1-28,34.4,31.7,29.1,31.9,26.2,19.0,95,81,58,30.18,29.84,20,6,29,0.01
2012-1-29,33.9,29.8,22.4,28.8,23.5,18.4,92,77,65,30.29,30.00,19,6,30,0.00
2012-1-30,49.7,36.3,21.7,38.0,29.0,18.7,88,75,63,30.28,29.93,16,6,26,0.00
2012-1-31,56.2,50.0,44.0,50.0,41.8,35.1,89,74,62,29.98,29.85,13,6,20,0.00
2012-2-1,53.6,41.6,34.4,50.6,38.7,32.2,93,89,83,30.16,29.88,10,2,17,0.01
2012-2-2,42.9,36.5,32.8,36.8,33.1,30.8,93,87,76,30.41,30.14,5,1,10,0.00
2012-2-3,45.2,36.0,26.8,41.9,33.6,25.3,96,91,82,30.50,30.36,12,2,13,0.00
2012-2-4,37.1,34.7,33.1,34.5,32.8,31.6,95,93,89,30.37,30.17,13,4,15,0.00
2012-2-5,45.9,34.4,24.2,37.4,30.0,22.5,96,85,57,30.30,30.18,8,1,12,0.00
2012-2-6,33.7,31.0,28.1,31.9,29.0,26.5,96,92,89,30.26,30.16,13,2,16,0.00
2012-2-7,35.9,32.3,29.2,32.0,29.2,26.6,91,88,82,30.35,30.19,12,3,14,0.00
2012-2-8,35.4,31.2,27.1,29.6,24.0,19.6,91,75,61,30.38,30.31,10,4,15,0.00
2012-2-9,32.9,27.3,20.5,23.5,21.5,18.0,91,79,65,30.34,30.17,11,4,18,0.00
2012-2-10,33.6,30.3,18.2,31.5,26.1,13.2,94,84,77,30.17,29.89,21,5,31,0.00
2012-2-11,20.6,15.9,11.8,16.3,10.0,4.7,85,77,67,30.39,30.04,20,6,26,0.00
2012-2-12,31.4,21.3,13.5,18.8,11.1,4.7,70,64,51,30.37,30.27,18,4,23,0.00
2012-2-13,34.4,27.2,17.5,25.9,16.8,11.7,91,65,48,30.27,29.97,12,3,20,0.00
2012-2-14,33.4,31.2,28.0,30.6,28.7,25.8,94,91,87,30.09,29.88,8,2,12,0.01
2012-2-15,40.2,36.6,33.3,38.1,33.6,29.8,95,89,82,30.19,30.02,11,4,15,0.00
2012-2-16,46.9,40.6,34.3,39.9,36.6,27.3,96,86,66,30.14,29.95,15,3,18,0.00
2012-2-17,46.1,37.4,28.3,32.9,29.0,24.7,87,72,55,30.20,30.03,10,2,15,0.00
2012-2-18,40.1,34.8,29.4,32.8,26.3,20.4,87,72,51,30.22,30.03,20,7,24,0.00
2012-2-19,35.7,28.6,22.3,24.2,21.7,18.9,87,76,58,30.26,30.15,14,5,18,0.00
2012-2-20,39.4,30.8,20.6,28.2,24.1,17.3,89,76,60,30.38,30.03,14,4,20,0.00
2012-2-21,42.9,38.7,33.2,39.9,34.4,27.1,95,85,69,30.03,29.68,18,7,25,0.01
2012-2-22,43.9,38.1,33.0,38.7,34.0,30.8,94,85,73,29.75,29.42,9,2,12,0.01
2012-2-23,40.7,35.9,29.8,38.3,34.3,28.0,96,94,90,29.63,29.45,15,4,18,0.00
2012-2-24,39.9,34.3,28.0,38.7,31.6,21.7,96,90,77,29.92,29.32,19,8,33,0.00
2012-2-25,33.2,27.0,23.3,22.0,19.6,18.0,84,74,57,30.39,29.92,14,5,23,0.00
2012-2-26,46.3,33.7,21.0,30.3,23.8,17.1,86,68,51,30.40,30.10,18,7,26,0.00
2012-2-27,44.3,37.5,28.3,30.9,25.5,21.3,81,62,51,30.50,30.10,18,4,29,0.00
2012-2-28,44.1,35.1,23.8,34.3,27.3,20.3,88,74,58,30.51,29.95,15,5,20,0.01
2012-2-29,65.5,49.4,37.5,56.6,38.1,28.3,100,70,33,29.95,29.45,20,10,33,0.00
2012-3-1,38.6,36.4,33.0,33.2,31.7,28.9,91,83,71,29.87,29.64,15,4,29,0.00
2012-3-2,53.2,39.7,32.9,50.1,36.0,29.8,95,87,81,29.86,29.19,23,8,35,0.01
2012-3-3,36.1,32.3,29.0,31.5,26.3,23.5,90,79,69,29.84,29.56,19,8,35,0.00
2012-3-4,32.3,30.3,27.7,27.9,24.6,21.8,86,79,72,29.93,29.82,9,2,14,0.01
2012-3-5,36.2,29.3,23.5,25.3,21.2,17.3,87,72,53,30.41,29.93,15,4,20,0.00
2012-3-6,65.0,47.4,29.9,42.4,32.6,24.1,81,59,42,30.38,30.03,18,8,29,0.00
2012-3-7,65.9,58.5,51.2,49.3,40.6,31.4,65,52,45,30.12,29.89,22,10,38,0.00
2012-3-8,63.2,47.3,35.2,56.0,39.7,25.7,92,76,51,30.23,29.80,24,7,26,0.02
2012-3-9,36.3,33.3,26.0,27.6,20.1,14.7,76,59,46,30.57,30.21,20,7,29,0.00
2012-3-10,54.4,37.9,23.6,31.0,23.5,17.5,78,58,39,30.57,30.32,15,5,20,0.00
2012-3-11,68.8,52.4,38.6,41.6,34.0,27.5,65,51,31,30.35,30.13,11,3,16,0.00
2012-3-12,69.5,59.9,49.7,58.3,52.3,39.3,93,77,53,30.15,29.76,18,7,35,0.01
2012-3-13,67.0,57.6,47.1,53.0,43.4,30.9,96,64,28,30.10,29.86,12,2,16,0.00
2012-3-14,80.3,65.6,51.9,61.6,51.3,30.9,83,62,41,30.10,29.96,14,4,24,0.00
2012-3-15,79.1,69.2,61.3,64.6,60.5,56.0,92,75,59,30.02,29.93,12,4,22,0.01
2012-3-16,79.0,67.5,56.0,61.5,57.7,54.3,95,73,51,30.08,29.99,8,2,15,0.00
2012-3-17,75.4,65.5,55.0,60.3,56.6,53.0,94,74,55,30.14,30.01,14,4,18,0.00
2012-3-18,79.4,67.3,60.0,61.0,58.2,56.6,92,74,49,30.09,29.98,7,1,12,0.01
2012-3-19,81.2,71.4,61.7,64.3,59.9,57.4,86,68,49,30.04,29.95,14,3,20,0.00
2012-3-20,83.0,73.0,63.6,60.1,57.2,54.9,74,59,40,30.08,29.96,13,4,20,0.00
2012-3-21,85.1,74.4,64.0,60.8,56.9,54.1,71,56,39,30.12,30.01,11,2,15,0.00
2012-3-22,82.0,71.8,62.7,61.7,57.6,54.4,78,62,43,30.10,29.98,13,2,21,0.01
2012-3-23,67.9,61.0,52.7,61.8,57.9,50.1,95,90,72,30.03,29.80,10,2,15,0.00
2012-3-24,64.5,56.5,52.2,55.8,52.6,50.4,95,87,68,29.88,29.74,10,2,14,0.00
2012-3-25,70.8,57.5,49.4,56.7,51.4,43.9,94,81,57,30.07,29.87,17,5,24,0.00
2012-3-26,53.2,45.3,36.8,43.9,33.3,29.3,80,63,45,30.34,30.06,14,6,20,0.00
2012-3-27,63.0,47.5,33.6,42.5,30.8,20.9,73,53,39,30.34,29.89,18,7,25,0.00
2012-3-28,69.9,60.7,47.3,55.3,45.4,37.4,84,59,33,30.00,29.78,21,6,31,0.00
2012-3-29,58.7,48.2,38.8,40.4,37.4,34.2,87,67,45,30.13,29.98,10,2,13,0.00
2012-3-30,64.9,49.4,40.0,56.8,43.4,35.4,91,80,68,30.01,29.66,15,6,22,0.01
2012-3-31,50.2,42.9,37.9,42.8,38.8,36.1,94,86,71,29.99,29.86,7,3,12,0.00
2012-4-1,71.7,54.3,40.8,60.1,48.1,37.2,91,80,63,29.91,29.64,10,3,13,0.00
2012-4-2,62.3,52.5,43.9,49.1,41.7,36.1,87,68,45,29.98,29.74,19,9,25,0.00
2012-4-3,81.0,61.0,46.6,60.7,48.4,39.3,79,64,48,29.95,29.75,17,3,23,0.00
2012-4-4,63.2,55.9,46.5,52.5,42.2,31.8,85,63,33,29.92,29.82,14,6,17,0.00
2012-4-5,55.2,47.1,40.3,36.2,33.6,30.5,76,60,44,30.12,29.86,16,6,20,0.00
2012-4-6,59.9,45.7,31.3,35.7,29.9,25.4,81,56,35,30.30,30.09,12,3,16,0.00
2012-4-7,67.2,51.9,33.3,43.7,29.7,22.8,83,47,20,30.33,30.13,11,1,17,0.00
2012-4-8,62.1,54.8,46.7,45.6,35.1,24.7,79,51,27,30.21,30.07,23,6,33,0.00
2012-4-9,61.3,52.8,44.8,40.6,32.7,25.3,81,49,28,30.09,29.89,22,5,30,0.00
2012-4-10,47.7,38.1,32.0,29.9,24.6,20.0,70,58,45,30.12,29.94,18,6,25,0.00
2012-4-11,53.6,40.5,29.9,33.2,28.0,22.5,79,62,41,30.28,30.11,16,4,23,0.00
2012-4-12,59.7,44.8,29.3,36.6,31.4,26.3,91,62,39,30.32,30.16,11,1,17,0.00
2012-4-13,64.4,52.3,34.4,36.9,32.8,28.8,82,50,30,30.24,30.07,12,2,18,0.00
2012-4-14,60.1,57.0,54.1,57.1,48.5,34.3,95,75,46,30.08,29.88,9,1,13,0.01
2012-4-15,76.2,68.4,57.8,62.4,59.5,56.2,96,74,59,29.91,29.71,14,5,25,0.00
2012-4-16,70.4,59.0,48.7,61.4,50.4,40.8,96,74,58,30.19,29.61,18,7,33,0.00
2012-4-17,58.2,49.7,40.0,44.5,40.3,37.2,98,71,50,30.36,30.19,11,1,13,0.00
2012-4-18,69.0,54.3,38.0,46.5,40.6,33.9,87,62,42,30.31,29.99,11,1,16,0.00
2012-4-19,77.2,65.0,56.1,51.8,47.5,44.8,71,55,34,30.00,29.74,10,1,16,0.00
2012-4-20,67.3,55.0,42.2,52.3,45.7,40.6,95,73,49,29.89,29.66,15,5,23,0.01
2012-4-21,56.6,45.9,38.6,40.8,34.5,27.5,94,67,36,30.01,29.88,15,6,21,0.00
2012-4-22,51.2,44.3,37.3,35.0,30.7,25.8,78,60,41,30.03,29.96,22,7,27,0.00
2012-4-23,54.3,45.3,35.7,31.4,24.8,16.4,69,47,26,30.02,29.78,26,9,38,0.00
2012-4-24,61.2,49.6,37.2,30.7,26.8,22.0,61,43,28,29.79,29.70,19,4,29,0.00
2012-4-25,61.9,53.2,45.5,52.0,42.9,26.2,88,69,42,29.79,29.65,11,2,16,0.02
2012-4-26,58.6,50.7,38.0,52.0,41.2,18.2,96,72,33,30.12,29.58,22,8,36,0.00
2012-4-27,56.9,45.0,30.5,30.0,25.3,19.5,74,48,31,30.29,30.10,14,3,18,0.00
2012-4-28,50.1,46.0,41.7,40.0,35.6,28.3,86,68,45,30.21,30.06,18,8,25,0.20
2012-4-29,63.0,50.7,39.0,46.5,38.7,32.2,87,65,38,30.28,30.10,16,7,21,0.37
2012-4-30,68.0,57.2,46.8,63.7,51.7,33.7,96,83,54,30.12,29.88,10,2,18,0.38
2012-5-1,65.7,59.3,53.7,59.6,56.4,52.6,100,90,76,30.04,29.85,8,1,14,0.39
2012-5-2,82.5,71.0,60.1,69.0,64.2,58.9,97,81,59,29.94,29.82,14,3,25,0.01
2012-5-3,86.3,77.2,69.4,68.5,64.8,58.2,87,67,48,29.97,29.84,12,2,20,0.00
2012-5-4,84.8,72.1,65.5,67.7,63.2,58.1,89,75,54,29.94,29.83,12,1,17,0.00
2012-5-5,76.5,67.6,62.7,65.7,61.7,57.8,93,82,67,30.02,29.87,12,3,18,0.00
2012-5-6,79.0,67.0,54.6,60.3,54.3,47.1,87,65,49,30.05,29.81,14,3,21,0.02
2012-5-7,68.8,60.1,52.4,62.9,53.9,38.5,94,82,45,29.89,29.79,12,2,20,0.25
2012-5-8,71.3,59.8,53.0,57.8,51.0,44.8,96,76,43,29.87,29.81,11,2,20,0.00
2012-5-9,61.6,55.3,46.8,49.6,45.9,37.9,86,71,60,29.92,29.83,16,4,25,0.00
2012-5-10,65.5,54.1,41.9,45.1,38.4,33.8,87,59,32,30.02,29.91,13,2,17,0.00
2012-5-11,76.5,63.0,54.4,42.7,38.7,36.6,52,42,25,30.15,30.02,7,1,14,0.00
2012-5-12,76.2,64.5,56.2,57.6,50.4,41.9,84,61,40,30.21,30.13,12,1,15,0.00
2012-5-13,72.3,62.5,52.8,60.4,55.3,49.9,92,78,63,30.19,30.06,12,2,15,0.00
2012-5-14,78.5,65.6,52.0,56.9,47.0,37.7,84,54,30,30.09,29.98,10,2,13,0.00
2012-5-15,84.3,67.4,49.5,48.9,43.6,37.6,74,45,26,30.01,29.84,9,1,18,0.00
2012-5-16,69.2,62.6,52.5,53.8,40.9,34.3,83,46,30,30.10,29.83,16,5,21,0.00
2012-5-17,72.8,60.0,45.1,44.5,39.9,37.1,81,50,31,30.19,30.06,7,1,15,0.00
2012-5-18,82.0,67.2,50.1,47.3,41.3,35.5,63,41,26,30.11,29.99,8,1,12,0.00
2012-5-19,89.1,75.2,56.7,61.0,52.0,40.6,67,45,33,30.08,29.99,8,1,13,0.00
2012-5-20,90.0,78.7,64.9,65.7,59.1,53.3,91,52,37,30.08,29.91,19,1,28,1.15
2012-5-21,78.5,60.1,54.6,62.6,55.6,49.7,96,85,72,30.06,29.93,20,4,36,0.22
2012-5-22,73.0,59.6,49.3,53.2,48.6,44.7,85,68,42,30.04,29.90,13,2,17,0.00
2012-5-23,80.8,66.3,46.9,58.7,51.8,44.7,94,63,40,29.93,29.78,12,0,14,0.00
2012-5-24,85.3,75.1,63.4,63.4,57.0,50.7,86,57,32,29.85,29.66,20,3,23,0.00
2012-5-25,83.0,76.8,69.1,65.4,58.2,49.9,73,54,35,30.06,29.74,11,2,18,0.00
2012-5-26,90.4,75.3,64.8,70.8,58.4,50.6,66,56,46,30.14,29.98,12,2,17,0.00
2012-5-27,92.8,79.9,66.1,68.2,61.1,53.7,72,54,37,30.06,29.87,8,1,16,0.00
2012-5-28,91.0,82.2,73.1,68.0,64.7,60.3,78,57,37,29.88,29.71,12,1,24,0.00
2012-5-29,83.7,76.3,69.1,66.6,57.1,46.8,84,54,31,29.84,29.68,12,1,18,0.02
2012-5-30,73.3,64.2,53.9,52.8,47.9,44.2,82,57,39,29.91,29.80,15,2,20,0.00
2012-5-31,66.8,55.6,48.8,53.0,48.7,44.3,94,79,59,29.96,29.76,13,3,24,0.55
2012-6-1,54.9,51.3,48.1,51.4,48.1,43.8,95,89,73,29.80,29.67,13,4,22,0.09
2012-6-2,70.6,57.2,44.5,56.1,48.8,42.6,94,76,46,29.81,29.74,20,1,32,0.28
2012-6-3,79.1,65.6,51.7,58.7,52.5,48.8,95,67,37,29.84,29.79,11,1,20,0.00
2012-6-4,76.7,67.8,59.4,56.2,53.1,49.4,79,61,41,29.88,29.76,14,3,18,0.00
2012-6-5,72.0,61.9,52.6,53.5,50.2,46.9,88,67,46,29.99,29.87,9,2,13,0.00
2012-6-6,78.6,64.3,47.9,52.5,49.2,44.6,92,62,35,30.08,29.98,10,1,20,0.00
2012-6-7,80.8,67.7,52.8,56.6,51.0,47.8,89,58,36,30.10,30.03,11,2,15,0.00
2012-6-8,86.2,70.4,51.0,55.8,50.6,46.6,87,54,29,30.08,29.94,7,0,13,0.00
2012-6-9,87.5,74.9,61.5,58.9,54.8,51.6,72,51,33,30.00,29.89,8,0,16,0.00
2012-6-10,89.7,78.0,66.2,63.8,58.8,52.9,70,53,37,30.02,29.92,8,1,16,0.00
2012-6-11,84.4,76.9,71.5,70.1,66.1,59.6,83,70,58,29.93,29.80,10,0,18,0.00
2012-6-12,74.9,69.3,59.0,64.7,53.4,45.6,86,59,40,30.11,29.83,16,4,24,0.00
2012-6-13,69.4,57.0,50.2,49.4,46.4,43.1,86,69,41,30.21,30.11,6,1,12,0.00
2012-6-14,85.5,69.7,53.1,51.9,46.6,41.6,78,47,23,30.19,30.06,6,1,12,0.00
2012-6-15,91.0,75.5,56.6,58.7,53.7,45.6,86,50,28,30.14,30.06,6,0,12,0.00
2012-6-16,91.8,77.3,66.0,68.6,62.2,53.0,81,61,39,30.11,29.91,13,1,26,0.05
2012-6-17,84.0,73.1,66.9,69.8,65.1,61.2,95,77,50,29.95,29.84,9,1,24,0.09
2012-6-18,90.5,77.5,66.1,72.7,66.7,60.3,90,71,48,29.89,29.76,9,1,21,0.00
2012-6-19,92.3,81.9,71.3,71.2,66.2,62.6,75,60,46,30.02,29.85,9,1,21,0.00
2012-6-20,91.5,82.2,71.6,66.8,64.3,61.8,76,56,39,30.09,29.92,7,1,18,0.00
2012-6-21,87.8,76.6,64.2,70.7,64.9,61.2,90,68,54,29.98,29.87,16,1,23,0.00
2012-6-22,81.7,71.2,60.7,64.1,57.4,51.8,96,66,40,30.00,29.94,11,2,15,0.00
2012-6-23,86.4,73.5,56.6,59.7,55.3,51.5,83,56,34,30.05,29.99,7,0,12,0.00
2012-6-24,90.3,79.3,66.7,63.9,60.3,56.4,78,54,37,30.04,29.89,9,1,14,0.00
2012-6-25,79.6,71.9,61.5,62.2,53.3,42.5,79,54,33,30.03,29.91,13,3,20,0.00
2012-6-26,83.8,68.3,50.3,53.7,49.7,46.6,92,56,29,30.10,29.95,7,0,12,0.00
2012-6-27,89.3,74.3,56.0,56.6,52.7,48.1,76,50,31,30.04,29.84,7,0,15,0.00
2012-6-28,100.0,85.7,72.9,77.1,66.1,53.9,70,52,44,29.86,29.73,12,2,23,0.00
2012-6-29,91.2,78.0,65.0,75.4,69.1,61.7,92,75,57,30.00,29.76,20,0,42,0.33
2012-6-30,86.8,76.1,66.1,74.3,69.0,64.5,96,80,59,29.93,29.78,8,1,16,0.24
2012-7-1,91.0,75.1,65.9,73.6,69.2,62.9,96,83,53,30.08,29.87,10,0,57,0.21
2012-7-2,93.4,79.1,64.6,76.4,70.6,63.1,97,77,51,30.02,29.93,4,0,7,0.01
2012-7-3,93.3,82.0,69.5,75.4,70.7,64.7,86,70,49,29.96,29.83,6,0,14,0.00
2012-7-4,97.8,85.7,73.5,77.1,73.6,70.4,90,69,47,29.91,29.84,9,1,14,0.00
2012-7-5,98.7,86.6,74.3,76.0,72.6,68.3,93,66,41,29.96,29.86,7,0,17,0.00
2012-7-6,101.9,88.6,75.7,79.9,75.7,71.9,89,68,42,29.96,29.89,6,0,12,0.00
2012-7-7,100.3,87.5,75.3,77.7,74.1,68.3,89,67,41,29.95,29.87,10,1,16,0.00
2012-7-8,84.8,76.6,71.0,70.6,65.8,57.6,89,71,41,30.03,29.93,11,2,16,0.13
2012-7-9,90.3,76.4,60.4,64.2,61.1,57.6,92,62,40,30.06,29.97,11,1,12,0.00
2012-7-10,88.2,76.2,62.7,63.6,58.0,53.5,82,56,34,30.09,30.02,10,2,15,0.00
2012-7-11,89.0,75.3,59.2,59.7,56.1,52.1,84,55,31,30.15,30.07,9,1,14,0.00
2012-7-12,91.5,78.1,62.5,59.6,55.2,51.3,71,47,32,30.12,30.04,10,2,13,0.00
2012-7-13,90.8,79.9,68.0,70.3,63.3,54.4,84,58,40,30.10,29.99,7,1,14,0.00
2012-7-14,87.4,75.8,69.3,73.0,68.0,65.0,89,78,55,30.08,29.99,9,1,17,0.16
2012-7-15,91.2,79.1,69.1,74.4,69.6,65.2,95,75,47,30.09,29.98,8,1,16,0.01
2012-7-16,95.8,82.3,69.4,73.5,69.7,67.3,95,69,43,30.03,29.86,5,0,15,0.00
2012-7-17,95.9,83.1,72.8,75.9,72.0,68.7,88,71,49,29.88,29.79,6,0,16,0.00
2012-7-18,93.3,80.0,71.5,77.3,72.8,67.8,93,80,56,29.93,29.84,15,0,27,0.69
2012-7-19,85.0,74.8,69.4,75.7,71.0,67.9,97,89,72,29.97,29.83,12,1,20,2.49
2012-7-20,81.6,73.4,64.1,70.8,63.9,58.6,92,74,50,30.06,29.89,12,4,15,0.01
2012-7-21,85.3,73.6,59.6,69.9,64.3,58.2,96,75,48,30.13,30.03,5,0,7,0.00
2012-7-22,87.0,78.2,68.3,74.8,68.7,64.6,88,74,55,30.13,30.04,3,0,10,0.00
2012-7-23,94.3,82.2,69.9,76.1,70.7,66.2,91,69,52,30.05,29.88,8,1,17,0.34
2012-7-24,82.7,76.0,68.2,73.6,70.9,66.7,96,85,71,30.09,29.86,19,0,31,0.67
2012-7-25,91.7,78.2,68.8,80.1,69.4,61.0,91,75,63,29.95,29.64,9,1,13,0.00
2012-7-26,83.6,78.2,69.2,74.1,71.4,66.9,93,80,68,29.80,29.62,10,1,20,0.11
2012-7-27,85.3,74.2,65.3,71.5,67.2,64.0,97,80,57,29.93,29.75,12,1,18,0.02
2012-7-28,80.8,71.7,63.7,65.9,62.1,56.3,95,74,46,30.10,29.91,12,2,17,0.00
2012-7-29,85.9,72.0,58.1,66.6,60.1,55.3,96,70,37,30.14,29.99,5,0,8,0.00
2012-7-30,91.0,77.3,66.7,70.7,66.1,60.2,90,70,47,30.02,29.90,5,0,7,0.00
2012-7-31,83.5,74.8,64.6,72.7,66.6,61.8,95,77,62,30.01,29.87,17,2,27,0.32
2012-8-1,82.8,72.5,61.1,66.7,62.7,57.8,96,74,48,29.97,29.89,11,1,14,0.01
2012-8-2,89.8,75.5,61.5,71.7,65.0,59.3,94,72,47,29.92,29.82,4,0,6,0.00
2012-8-3,93.5,80.1,66.5,71.5,67.3,62.5,89,67,43,29.92,29.84,5,0,10,0.00
2012-8-4,89.1,77.4,69.0,78.7,71.6,66.3,93,83,69,29.92,29.80,8,1,14,0.54
2012-8-9,69.3,65.1,63.3,65.6,62.9,61.5,94,93,88,29.83,29.77,10,2,14,0.27
2012-8-10,66.7,61.9,59.0,61.6,58.5,54.3,95,89,72,29.92,29.75,20,5,29,0.00
2012-8-11,73.5,64.8,59.9,63.6,59.3,55.6,94,83,66,30.01,29.89,12,2,20,0.01
2012-8-12,75.3,66.3,55.5,64.1,58.8,54.1,96,78,56,30.07,30.00,3,0,6,0.01
2012-8-13,71.3,65.1,61.6,64.1,61.0,58.8,95,87,74,30.02,29.92,6,1,12,0.70
2012-8-14,78.7,65.0,61.5,65.1,61.2,60.3,96,88,62,29.98,29.90,8,2,12,0.38
2012-8-15,84.7,77.2,70.9,68.6,65.2,63.7,78,67,55,29.95,29.92,3,0,5,0.00
2012-8-16,72.7,68.8,65.8,65.0,61.8,59.7,93,78,74,29.96,29.84,6,1,15,0.23
2012-8-17,69.2,63.4,57.9,55.9,53.7,51.6,80,71,62,30.02,29.98,7,1,10,0.01
2012-8-18,76.2,63.8,46.8,55.9,51.8,44.9,96,68,44,30.05,29.95,5,0,7,0.01
2012-8-19,76.1,65.1,54.3,60.1,54.2,49.6,94,70,41,29.99,29.91,12,1,16,0.00
2012-8-20,76.6,62.2,52.7,60.7,55.1,50.7,95,79,50,30.00,29.95,14,1,21,0.00
2012-8-21,77.2,66.4,52.5,60.1,54.9,51.1,96,70,44,30.12,30.02,7,0,12,0.01
2012-8-22,82.3,68.1,51.7,61.0,56.2,49.9,96,69,42,30.17,30.08,4,0,7,0.00
2012-8-23,87.8,78.5,68.4,65.9,60.5,57.7,75,55,41,30.08,30.06,2,0,5,0.00
2012-8-24,88.3,75.8,63.6,68.4,61.9,57.1,82,63,45,30.09,30.01,7,0,12,0.00
2012-8-25,93.0,79.0,64.9,68.7,63.0,58.4,81,60,40,30.09,30.02,2,0,6,0.00
2012-8-26,74.3,70.6,67.0,72.0,64.8,60.3,94,82,63,30.07,29.99,2,0,18,0.16
2012-8-27,80.9,72.5,66.7,69.5,65.8,60.5,97,81,52,30.06,29.93,13,2,17,1.01
2012-8-28,80.2,69.0,59.4,64.5,60.9,56.8,92,77,55,30.14,30.04,9,0,12,0.00
2012-8-29,82.8,74.1,66.0,62.7,60.7,57.9,76,64,46,30.06,30.02,2,0,7,0.00
2012-8-30,85.6,72.6,60.9,66.8,60.9,56.0,86,68,47,30.10,30.01,6,0,12,0.00
2012-8-31,88.8,72.9,63.6,75.3,65.1,57.1,87,77,61,30.06,30.03,3,0,13,0.00
2012-9-1,76.9,74.9,73.0,74.4,72.5,70.9,96,92,86,30.08,29.96,3,0,7,0.33
2012-9-2,79.9,76.3,72.3,74.9,72.9,70.5,95,90,84,29.98,29.85,13,1,14,0.53
2012-9-3,87.7,77.9,68.3,75.2,71.2,66.5,95,81,61,29.91,29.83,6,1,9,0.00
2012-9-4,85.0,78.3,70.4,74.0,71.6,68.0,97,81,67,29.91,29.83,8,0,12,0.00
2012-9-5,77.8,71.3,67.5,72.3,67.4,64.2,95,88,77,29.92,29.79,12,0,20,0.00
2012-9-6,83.0,70.9,65.1,66.9,65.5,61.4,96,85,52,29.92,29.83,9,0,13,0.01
2012-9-7,71.4,69.9,69.4,66.3,65.2,64.7,86,85,84,29.90,29.73,0,0,3,0.01
2012-9-8,68.8,64.6,57.3,57.0,52.8,50.6,83,66,54,29.90,29.85,13,2,18,0.01
2012-9-9,71.5,61.8,55.1,57.9,54.1,50.3,95,77,55,30.14,29.88,12,2,17,0.24
2012-9-10,76.4,62.3,47.9,55.0,50.7,45.9,94,69,42,30.26,30.14,4,0,7,0.01
2012-9-11,79.7,72.6,60.0,59.2,56.0,49.8,70,57,45,30.23,30.13,7,1,14,0.01
2012-9-12,83.0,70.0,56.7,62.6,57.3,51.9,85,66,45,30.24,30.14,8,0,15,0.00
2012-9-13,80.5,70.2,60.5,64.6,60.5,56.6,87,72,53,30.25,30.17,12,1,15,0.00
2012-9-14,71.2,60.8,52.9,56.7,51.1,44.0,94,73,47,30.34,30.24,10,2,15,0.24
2012-9-15,78.2,61.4,46.9,55.0,49.8,44.2,96,69,40,30.35,30.17,5,0,10,0.00
2012-9-16,78.7,65.1,51.9,55.9,51.0,47.4,86,63,39,30.18,30.02,4,0,12,0.00
2012-9-17,75.1,64.7,54.6,63.1,56.3,48.5,92,75,62,30.03,29.73,6,0,10,0.00
2012-9-18,64.6,56.6,46.8,62.4,50.1,37.6,95,80,48,30.05,29.70,18,3,26,0.57
2012-9-19,67.9,54.6,39.9,45.8,41.4,37.2,92,65,37,30.16,29.99,9,0,18,0.00
2012-9-20,72.0,61.5,52.4,55.1,46.6,42.9,90,59,37,30.00,29.88,6,0,17,0.10
2012-9-21,68.8,55.5,46.7,52.9,45.0,40.2,93,70,37,29.97,29.81,6,0,13,0.04
2012-9-22,54.7,49.8,44.1,50.9,45.5,36.8,96,86,56,30.17,29.80,16,2,29,0.05
2012-9-23,57.8,48.6,40.2,43.5,39.0,36.4,95,72,46,30.29,30.17,11,1,20,0.00
2012-9-24,67.7,52.2,38.0,41.3,37.4,34.8,89,62,32,30.28,30.00,7,0,16,0.00
2012-9-25,69.2,60.7,52.3,62.5,51.8,40.6,90,73,58,30.01,29.89,6,0,12,0.00
2012-9-26,72.4,65.2,56.7,65.7,60.6,49.8,95,86,73,30.14,29.90,11,1,13,0.00
2012-9-27,73.7,61.3,51.6,60.0,53.8,47.3,92,77,58,30.18,30.10,5,0,9,0.00
2012-9-28,66.8,59.0,53.6,57.0,52.8,49.0,92,81,66,30.15,30.08,7,0,10,0.00
2012-9-29,71.8,58.1,45.0,52.9,46.5,43.1,96,69,39,30.14,29.97,10,1,16,0.00
2012-9-30,66.0,55.1,43.2,50.0,45.4,41.6,95,72,47,29.97,29.91,11,1,17,0.00
2012-10-1,62.4,50.0,41.5,50.8,44.5,39.5,95,82,59,29.97,29.88,5,1,9,0.00
2012-10-2,62.3,58.8,52.0,58.3,54.2,49.5,92,85,78,29.92,29.82,11,3,16,0.13
2012-10-3,62.1,59.0,56.8,58.9,56.2,52.8,95,90,83,30.07,29.90,9,0,15,0.01
2012-10-4,78.4,64.8,53.8,59.0,55.0,51.3,93,73,47,30.14,30.03,11,0,21,0.14
2012-10-5,56.6,46.1,39.6,54.5,44.0,38.1,95,92,86,30.15,30.06,3,0,10,0.42
2012-10-6,48.7,41.2,33.6,38.3,34.0,30.0,95,77,54,30.20,30.08,11,1,17,0.00
2012-10-7,49.4,43.3,37.1,38.1,35.4,30.8,84,74,57,30.21,30.15,8,0,15,0.00
2012-10-8,56.2,43.5,32.5,34.4,30.0,27.7,83,62,38,30.26,30.12,7,0,12,0.00
2012-10-9,62.2,51.1,40.9,43.1,38.0,31.5,76,62,46,30.15,29.88,7,1,17,0.00
2012-10-10,53.9,44.4,38.1,45.3,35.5,27.9,93,73,42,30.23,29.88,17,1,23,0.18
2012-10-11,61.8,47.7,34.9,39.3,34.5,30.0,83,62,40,30.26,30.12,10,0,20,0.00
2012-10-12,54.4,47.8,40.2,44.4,34.3,28.0,84,61,40,30.47,30.21,13,3,18,0.00
2012-10-13,65.1,52.6,40.4,62.5,45.9,28.4,95,78,60,30.36,29.92,8,1,16,0.37
2012-10-14,72.5,64.3,50.3,63.5,59.3,47.4,93,84,63,29.92,29.48,16,3,33,0.24
2012-10-15,53.0,48.7,40.4,47.8,43.1,36.4,94,81,64,30.01,29.74,8,1,18,0.01
2012-10-16,63.9,50.8,36.5,48.0,41.6,33.8,93,73,51,30.03,29.71,10,2,20,0.01
2012-10-17,71.2,61.4,55.0,55.0,51.6,48.1,91,72,49,29.72,29.42,8,2,24,0.34
2012-10-18,59.4,52.2,44.6,55.1,44.5,34.1,94,77,41,29.64,29.34,12,1,24,0.46
2012-10-19,48.4,45.7,43.6,46.4,43.9,41.5,95,93,91,29.66,29.52,6,1,12,0.45
2012-10-20,55.4,46.7,41.7,46.3,42.6,40.4,95,86,67,29.99,29.66,7,1,16,0.01
2012-10-21,65.4,51.9,39.0,51.1,45.1,37.3,95,79,59,30.13,29.98,7,0,12,0.01
2012-10-22,71.0,60.3,52.5,60.7,54.3,47.4,93,81,63,30.07,29.93,12,0,20,0.07
2012-10-23,67.0,62.4,58.9,61.8,58.4,55.4,95,87,72,30.02,29.92,10,1,16,0.41
2012-10-24,78.5,68.4,61.0,64.3,59.6,55.8,87,74,61,30.03,29.94,8,1,15,0.00
2012-10-25,76.6,68.0,55.9,61.7,57.9,50.8,84,70,60,29.96,29.80,12,2,26,0.00
2012-10-26,55.6,45.2,38.8,50.8,38.5,33.9,95,78,64,30.30,29.92,17,4,24,0.20
2012-10-27,50.4,41.7,33.8,36.8,33.2,29.5,85,73,50,30.30,30.20,17,4,23,0.00
2012-10-28,46.4,40.9,34.9,35.3,32.3,28.9,87,72,58,30.27,30.20,18,5,23,0.00
2012-10-29,48.7,41.7,35.4,33.6,28.6,24.8,77,60,40,30.22,29.92,24,10,33,0.00
2012-10-30,43.6,41.3,39.8,38.6,34.8,26.9,92,79,55,29.92,29.66,28,13,40,0.15
2012-10-31,41.2,39.8,38.7,38.9,37.3,35.9,94,91,86,29.84,29.70,16,4,22,0.10
2012-11-1,51.1,41.9,32.6,38.0,31.0,26.3,88,67,39,29.90,29.82,10,1,20,0.00
2012-11-2,46.7,40.6,35.3,36.0,32.9,29.1,88,74,60,30.15,29.89,11,2,16,0.00
2012-11-3,42.8,36.4,29.1,34.5,31.4,26.8,93,82,68,30.25,30.15,8,1,12,0.01
2012-11-4,42.6,36.0,31.1,33.1,30.0,27.1,89,79,63,30.27,30.20,8,1,13,0.00
2012-11-5,45.2,34.2,23.0,32.3,27.3,20.9,94,77,55,30.26,30.17,7,0,12,0.00
2012-11-6,46.7,36.7,28.5,34.3,29.3,24.6,87,75,58,30.17,29.97,7,1,12,0.00
2012-11-8,42.7,41.0,39.0,36.8,35.4,34.3,85,80,78,30.20,30.18,5,0,5,0.00
2012-11-9,48.2,37.9,34.6,41.0,34.4,32.0,91,87,76,30.21,30.18,9,2,13,0.01
2012-11-10,69.9,65.4,61.2,54.4,50.7,47.9,63,59,54,30.04,30.01,14,4,21,0.00
2012-11-11,68.5,61.0,53.1,52.5,48.0,44.7,73,63,54,30.09,29.89,23,6,33,0.00
2012-11-12,61.9,38.6,31.6,52.0,32.3,23.1,99,78,57,30.37,29.92,15,2,26,0.48
2012-11-13,39.1,33.3,27.6,27.0,23.1,19.8,78,66,55,30.58,30.37,7,0,13,0.00
2012-11-14,41.0,34.8,27.3,30.1,27.2,22.2,85,74,61,30.61,30.46,6,0,10,0.00
2012-11-15,46.9,35.1,24.6,34.0,28.4,22.6,93,78,57,30.47,30.39,3,0,5,0.00
2012-11-16,52.2,39.1,26.5,36.1,30.1,24.2,92,72,48,30.54,30.43,3,0,5,0.01
2012-11-17,54.2,40.8,28.0,38.7,31.6,24.3,92,71,49,30.59,30.49,8,0,12,0.00
2012-11-18,56.7,44.0,34.3,38.4,33.8,29.6,86,69,43,30.50,30.37,5,0,7,0.00
2012-11-19,59.0,47.6,37.6,40.2,35.0,28.8,73,62,46,30.38,30.15,4,0,9,0.00
2012-11-20,54.2,50.7,45.0,44.6,41.6,38.1,91,71,62,30.16,30.06,6,0,10,0.00
2012-11-21,54.4,43.5,34.3,48.4,40.7,32.9,96,90,77,30.27,30.15,4,0,9,0.01
2012-11-22,60.5,51.9,43.1,48.0,44.1,40.5,91,76,59,30.17,29.83,12,3,21,0.03
2012-11-23,52.9,35.5,29.0,50.6,28.4,19.9,93,75,64,30.17,29.82,18,4,30,0.06
2012-11-24,29.4,28.4,26.7,22.2,21.3,19.8,79,74,71,30.25,30.08,7,1,16,0.00
2012-11-25,43.9,34.6,27.4,29.9,26.0,21.6,81,71,56,30.09,29.89,8,1,15,0.00
2012-11-26,39.0,33.5,28.7,30.7,26.7,24.7,87,76,63,30.33,30.05,8,1,12,0.00
2012-11-27,37.9,32.0,26.8,26.2,23.1,18.2,80,70,55,30.42,30.30,8,0,12,0.00
2012-11-28,42.8,32.8,25.0,27.5,22.9,18.1,80,67,52,30.41,30.29,7,0,14,0.00
2012-11-29,49.1,39.1,31.2,34.2,29.6,24.8,78,69,55,30.36,30.17,8,1,14,0.00
2012-11-30,53.3,44.4,35.5,37.3,33.7,29.3,79,67,53,30.17,30.07,6,1,12,0.00
2012-12-1,60.3,49.4,35.3,51.8,42.3,31.4,89,77,64,30.18,30.00,11,2,21,0.00
2012-12-2,59.0,56.6,53.7,55.3,52.2,47.1,95,86,65,30.07,29.93,10,1,20,0.10
2012-12-3,65.7,60.2,53.4,61.1,57.3,51.9,97,91,78,30.07,29.89,13,3,27,0.01
2012-12-4,63.5,51.4,42.8,57.8,44.8,34.6,93,79,56,30.19,29.90,15,2,20,0.31
2012-12-5,43.7,35.7,30.2,34.8,28.5,25.4,83,75,63,30.42,30.19,13,3,20,0.00
2012-12-6,42.8,35.3,28.3,37.3,30.5,24.3,86,82,76,30.29,29.97,7,2,12,0.00
2012-12-7,47.6,43.6,40.6,44.2,40.8,36.7,95,90,85,29.97,29.84,5,1,6,0.07
2012-12-8,44.2,40.8,34.7,42.7,39.0,32.3,96,93,86,30.11,29.81,13,3,16,0.04
2012-12-9,46.3,39.6,34.8,45.2,37.8,32.1,96,93,89,30.11,29.69,14,5,21,0.11
2012-12-10,41.1,33.5,30.2,40.0,31.3,27.3,96,91,86,29.93,29.70,10,1,23,0.00
2012-12-11,34.3,30.3,27.6,30.0,25.3,22.5,92,82,64,30.20,29.93,7,1,14,0.01
2012-12-12,42.4,33.0,25.9,29.5,25.8,22.3,92,75,56,30.39,30.21,5,1,10,0.00
2012-12-13,46.4,37.1,29.9,30.3,27.3,24.6,81,68,49,30.38,30.18,10,1,15,0.00
2012-12-14,49.2,39.8,32.4,34.4,30.4,26.1,78,69,53,30.27,30.11,6,0,10,0.00
2012-12-15,47.6,43.1,40.4,43.7,35.3,31.4,92,74,66,30.12,29.73,16,4,23,0.08
2012-12-16,50.5,44.0,40.1,46.9,40.5,36.3,92,87,84,29.72,29.60,8,1,13,0.03
2012-12-17,40.1,38.3,36.6,36.8,35.1,33.9,92,88,84,29.75,29.63,7,0,12,0.04
2012-12-18,39.9,36.3,31.2,36.9,33.7,29.7,95,90,84,29.83,29.66,11,2,20,0.03
2012-12-19,42.1,40.1,37.5,38.1,36.6,34.8,91,87,83,30.07,29.72,14,2,20,0.00
2012-12-20,51.5,41.2,33.2,48.7,38.6,31.4,95,90,76,29.95,29.10,21,7,29,1.06
2012-12-21,33.4,31.1,27.8,32.1,29.4,25.8,95,93,91,30.10,29.25,19,7,30,0.03
2012-12-22,29.5,25.2,22.0,25.8,21.6,18.9,92,86,77,30.24,30.04,6,1,13,0.00
2012-12-23,34.0,26.7,19.2,29.2,22.8,16.4,90,85,80,30.05,29.94,8,1,12,0.03
2012-12-24,32.4,29.6,24.4,29.7,26.4,21.4,92,88,85,30.06,29.83,9,2,12,0.01
2012-12-25,33.0,28.9,22.7,27.6,24.6,20.1,92,84,75,30.30,30.05,16,4,20,0.00
2012-12-26,29.7,28.3,25.9,26.4,25.0,22.3,93,87,81,30.21,29.85,23,12,28,0.00
2012-12-27,32.8,28.4,25.1,27.2,23.5,20.7,92,82,74,30.19,30.02,13,1,20,0.00
2012-12-28,31.1,29.3,28.2,27.4,26.2,25.4,92,88,82,30.18,29.91,7,1,12,0.02
2012-12-29,31.8,28.3,24.8,29.6,25.8,21.1,92,90,85,30.21,29.85,8,1,18,0.00
2012-12-30,28.5,23.3,15.8,21.6,18.8,12.9,88,83,73,30.42,30.21,7,1,17,0.00
2012-12-31,34.7,30.4,25.7,30.4,26.4,20.8,94,85,74,30.25,30.04,9,2,20,0.01
2013-1-1,29.3,25.7,15.6,26.6,21.7,12.4,92,85,77,30.19,30.07,5,0,7,0.00